Location: Malvern Link
(52.1333°N, 2.3000°W)
Time: 16:23:39
(UTC+00:00)

Cosmos 2278 Rocket - Pass Details

Date: 18 September 2020
Orbit: 841 x 845 km, 71.0° (Epoch: 22 October)

Event Time Altitude Azimuth Distance (km) Brightness Sun altitude
Exits shadow 21:22:32 17° 52° (NE) 2,003 4.0 -26.7°
Drops below altitude 10° 21:23:58 10° 43° (NE) 2,471 4.6 -26.9°
Sets 21:26:35 0° 36° (NE) 3,410 5.5 -27.2°
